When you browse on this site, cookies collect data to enhance your experience and personalize the content and advertising you see.
Visit our Privacy Policy to learn more. By continuing to use the site, you agree to this use of cookies and data.
  • en France
  • Liste des pays
  • À 7 jours
  • Température de l'eau
  • Carte satellitaire
  • Carte météo
  • Widgets météo
  • user-avatar
    Se connecter

    Météo par heure à Strasbourg

    Ce jour, 20 Mars, Mercredi

    Heure Température Précipitation Vent Pression Humidité
    00:00 +3°C° 0 mm 0 m/s 760 mmHg 72%
    01:00 +3°C° 0 mm 0 m/s 761 mmHg 73%
    02:00 +2°C° 0 mm 0 m/s 761 mmHg 74%
    03:00 +2°C° 0 mm 0 m/s 761 mmHg 75%
    04:00 +2°C° 0 mm 0 m/s 761 mmHg 76%
    05:00 +2°C° 0 mm 0 m/s 761 mmHg 76%
    06:00 +2°C° 0 mm 0 m/s 762 mmHg 76%
    07:00 +2°C° 0 mm 0 m/s 762 mmHg 76%
    08:00 +5°C° 0 mm 1 m/s 762 mmHg 68%
    09:00 +7°C° 0 mm 1 m/s 762 mmHg 61%
    10:00 +9°C° 0 mm 1 m/s 762 mmHg 53%
    11:00 +9°C° 0 mm 2 m/s 762 mmHg 49%
    12:00 +10°C° 0 mm 2 m/s 762 mmHg 46%
    13:00 +12°C° 0 mm 2 m/s 762 mmHg 42%
    14:00 +12°C° 0 mm 3 m/s 762 mmHg 42%
    15:00 +12°C° 0 mm 3 m/s 761 mmHg 43%
    16:00 +12°C° 0 mm 3 m/s 761 mmHg 43%
    17:00 +10°C° 0 mm 3 m/s 761 mmHg 49%
    18:00 +9°C° 0 mm 3 m/s 762 mmHg 54%
    19:00 +7°C° 0 mm 2 m/s 762 mmHg 60%
    20:00 +6°C° 0 mm 2 m/s 762 mmHg 62%
    21:00 +6°C° 0 mm 2 m/s 762 mmHg 64%
    22:00 +6°C° 0 mm 1 m/s 762 mmHg 66%
    23:00 +6°C° 0 mm 1 m/s 762 mmHg 68%

    Demain, 21 Mars, Jeudi

    Heure Température Précipitation Vent Pression Humidité
    00:00 +5°C° 0 mm 1 m/s 762 mmHg 69%
    01:00 +5°C° 0 mm 1 m/s 762 mmHg 71%
    02:00 +4°C° 0 mm 1 m/s 762 mmHg 72%
    03:00 +4°C° 0 mm 1 m/s 762 mmHg 72%
    04:00 +4°C° 0 mm 1 m/s 762 mmHg 73%
    05:00 +4°C° 0 mm 1 m/s 762 mmHg 73%
    06:00 +4°C° 0 mm 1 m/s 762 mmHg 74%
    07:00 +3°C° 0 mm 1 m/s 762 mmHg 74%
    08:00 +5°C° 0 mm 2 m/s 762 mmHg 67%
    09:00 +7°C° 0 mm 2 m/s 762 mmHg 59%
    10:00 +9°C° 0 mm 2 m/s 762 mmHg 52%
    11:00 +11°C° 0 mm 3 m/s 762 mmHg 49%
    12:00 +12°C° 0 mm 3 m/s 761 mmHg 45%
    13:00 +14°C° 0 mm 4 m/s 761 mmHg 42%
    14:00 +14°C° 0 mm 4 m/s 760 mmHg 43%
    15:00 +14°C° 0 mm 4 m/s 760 mmHg 44%
    16:00 +14°C° 0 mm 4 m/s 760 mmHg 45%
    17:00 +13°C° 0 mm 4 m/s 760 mmHg 51%
    18:00 +11°C° 0 mm 3 m/s 760 mmHg 57%
    19:00 +9°C° 0 mm 2 m/s 760 mmHg 63%
    20:00 +8°C° 0 mm 2 m/s 760 mmHg 66%
    21:00 +7°C° 0 mm 2 m/s 760 mmHg 69%
    22:00 +8°C° 0 mm 1 m/s 760 mmHg 72%
    23:00 +7°C° 0 mm 1 m/s 760 mmHg 74%

    Après-demain, 22 Mars, Vendredi

    Heure Température Précipitation Vent Pression Humidité
    00:00 +7°C° 0 mm 1 m/s 760 mmHg 75%
    01:00 +6°C° 0 mm 1 m/s 760 mmHg 76%
    02:00 +6°C° 0 mm 1 m/s 759 mmHg 77%
    03:00 +5°C° 0 mm 1 m/s 759 mmHg 77%
    04:00 +5°C° 0 mm 1 m/s 759 mmHg 78%
    05:00 +5°C° 0 mm 1 m/s 759 mmHg 78%
    06:00 +5°C° 0 mm 1 m/s 759 mmHg 77%
    07:00 +5°C° 0 mm 1 m/s 759 mmHg 77%
    08:00 +7°C° 0 mm 1 m/s 759 mmHg 69%
    09:00 +8°C° 0 mm 0 m/s 759 mmHg 61%
    10:00 +11°C° 0 mm 0 m/s 759 mmHg 53%
    11:00 +12°C° 0 mm 0 m/s 758 mmHg 49%
    12:00 +14°C° 0 mm 0 m/s 758 mmHg 46%
    13:00 +16°C° 0 mm 0 m/s 757 mmHg 42%
    14:00 +16°C° 0 mm 0 m/s 757 mmHg 42%
    15:00 +16°C° 0 mm 0 m/s 757 mmHg 42%
    16:00 +18°C° 0 mm 1 m/s 756 mmHg 41%
    17:00 +14°C° 0 mm 0 m/s 756 mmHg 47%
    18:00 +13°C° 0 mm 0 m/s 756 mmHg 53%
    19:00 +11°C° 0 mm 0 m/s 756 mmHg 59%
    20:00 +10°C° 0 mm 0 m/s 757 mmHg 62%
    21:00 +10°C° 0 mm 0 m/s 757 mmHg 64%
    22:00 +10°C° 0 mm 1 m/s 757 mmHg 66%
    23:00 +10°C° 0 mm 1 m/s 757 mmHg 69%

    23 Mars, Samedi

    Heure Température Précipitation Vent Pression Humidité
    00:00 +9°C° 0 mm 1 m/s 757 mmHg 71%
    01:00 +9°C° 0 mm 1 m/s 757 mmHg 74%
    02:00 +8°C° 0 mm 1 m/s 757 mmHg 75%
    03:00 +8°C° 0 mm 1 m/s 757 mmHg 77%
    04:00 +8°C° 0 mm 1 m/s 757 mmHg 79%
    05:00 +7°C° 0 mm 1 m/s 757 mmHg 80%
    06:00 +7°C° 0 mm 1 m/s 757 mmHg 80%
    07:00 +7°C° 0 mm 1 m/s 757 mmHg 81%
    08:00 +9°C° 0 mm 1 m/s 757 mmHg 75%
    09:00 +11°C° 0 mm 1 m/s 757 mmHg 68%
    10:00 +13°C° 0 mm 1 m/s 757 mmHg 61%
    11:00 +15°C° 0 mm 1 m/s 757 mmHg 57%
    12:00 +16°C° 0 mm 1 m/s 757 mmHg 53%
    13:00 +18°C° 0 mm 1 m/s 756 mmHg 48%
    14:00 +18°C° 0 mm 1 m/s 756 mmHg 47%
    15:00 +18°C° 0 mm 1 m/s 756 mmHg 47%
    16:00 +18°C° 0 mm 1 m/s 755 mmHg 46%
    17:00 +16°C° 0 mm 1 m/s 755 mmHg 52%
    18:00 +14°C° 0 mm 1 m/s 755 mmHg 59%
    19:00 +12°C° 0 mm 1 m/s 755 mmHg 66%
    20:00 +12°C° 0 mm 1 m/s 755 mmHg 69%
    21:00 +11°C° 0 mm 1 m/s 756 mmHg 73%
    22:00 +9°C° 0 mm 0 m/s 756 mmHg 76%
    23:00 +9°C° 0 mm 0 m/s 756 mmHg 78%

    24 Mars, Dimanche

    Heure Température Précipitation Vent Pression Humidité
    00:00 +8°C° 0 mm 0 m/s 756 mmHg 80%
    01:00 +9°C° 0 mm 1 m/s 755 mmHg 82%
    02:00 +9°C° 0 mm 1 m/s 755 mmHg 83%
    03:00 +8°C° 0 mm 1 m/s 755 mmHg 84%
    04:00 +8°C° 0 mm 1 m/s 755 mmHg 85%
    05:00 +8°C° 0 mm 1 m/s 755 mmHg 86%
    06:00 +8°C° 0 mm 1 m/s 755 mmHg 86%
    07:00 +8°C° 0 mm 1 m/s 756 mmHg 86%
    08:00 +10°C° 0 mm 1 m/s 756 mmHg 79%
    09:00 +12°C° 0 mm 1 m/s 756 mmHg 72%
    10:00 +14°C° 0 mm 1 m/s 756 mmHg 65%
    11:00 +15°C° 0 mm 2 m/s 756 mmHg 61%
    12:00 +16°C° 0 mm 2 m/s 755 mmHg 57%
    13:00 +16°C° 0 mm 2 m/s 755 mmHg 53%
    14:00 +17°C° 0 mm 2 m/s 755 mmHg 53%
    15:00 +17°C° 0 mm 2 m/s 755 mmHg 52%
    16:00 +17°C° 0 mm 2 m/s 755 mmHg 52%
    17:00 +16°C° 0.1 mm 2 m/s 755 mmHg 59%
    18:00 +14°C° 0.1 mm 2 m/s 755 mmHg 65%
    19:00 +13°C° 0.1 mm 2 m/s 756 mmHg 72%
    20:00 +12°C° 0.1 mm 2 m/s 756 mmHg 77%
    21:00 +10°C° 0.1 mm 2 m/s 757 mmHg 82%
    22:00 +9°C° 0.1 mm 2 m/s 757 mmHg 87%
    23:00 +8°C° 0 mm 2 m/s 757 mmHg 88%

    25 Mars, Lundi

    Heure Température Précipitation Vent Pression Humidité
    00:00 +8°C° 0 mm 2 m/s 758 mmHg 88%
    01:00 +7°C° 0 mm 2 m/s 758 mmHg 88%
    02:00 +7°C° 0 mm 2 m/s 758 mmHg 88%
    03:00 +6°C° 0 mm 2 m/s 758 mmHg 88%
    04:00 +5°C° 0 mm 2 m/s 758 mmHg 87%
    05:00 +5°C° 0 mm 2 m/s 759 mmHg 85%
    06:00 +4°C° 0 mm 2 m/s 759 mmHg 83%
    07:00 +4°C° 0 mm 2 m/s 759 mmHg 81%
    08:00 +5°C° 0 mm 2 m/s 760 mmHg 75%
    09:00 +7°C° 0 mm 2 m/s 760 mmHg 68%
    10:00 +8°C° 0 mm 2 m/s 760 mmHg 62%
    11:00 +9°C° 0 mm 3 m/s 760 mmHg 61%
    12:00 +10°C° 0 mm 3 m/s 760 mmHg 59%
    13:00 +10°C° 0 mm 3 m/s 760 mmHg 58%
    14:00 +10°C° 0 mm 3 m/s 760 mmHg 57%
    15:00 +10°C° 0 mm 4 m/s 760 mmHg 57%
    16:00 +10°C° 0 mm 4 m/s 760 mmHg 56%
    17:00 +8°C° 0 mm 4 m/s 760 mmHg 58%
    18:00 +8°C° 0 mm 3 m/s 760 mmHg 59%
    19:00 +7°C° 0 mm 3 m/s 761 mmHg 61%
    20:00 +5°C° 0 mm 3 m/s 762 mmHg 62%
    21:00 +4°C° 0 mm 3 m/s 762 mmHg 64%
    22:00 +5°C° 0 mm 2 m/s 763 mmHg 66%
    23:00 +3°C° 0 mm 3 m/s 763 mmHg 66%
    Voir plus